Regional Weather Roundup
Issued by NWS Sterling, VA

Home | Current Version | Previous Version | Graphics & Text | Print | Product List | Glossary On
Versions: 1 2 3 4 5 6 7 8 9 10 11 12 13 14 15 16 17 18 19 20 21 22 23 24 25 26 27 28 29 30 31 32 33 34 35 36 37 38 39 40 41 42 43 44 45 46 47 48 49 50
000
ASUS41 KLWX 210810
RWRLWX

REGIONAL WEATHER ROUNDUP
NATIONAL WEATHER SERVICE BALTIMORE MD/WASHINGTON DC
400 AM EDT SUN SEP 21 2014

Note: "FAIR" indicates few or no clouds below 12,000 feet
with no significant weather and/or obstructions to visibility.
 TC=TEMPERATURE CELSIUS

 * =Non NWS site. Station does not report precipitation (e.g. rain,
    snow, etc.), thunder, or fog.

DCZ001-MDZ009-015-VAZ040>042-051-053>054-210900-
WASHINGTON METRO

CITY           SKY/WX    TMP DP  RH WIND       PRES   REMARKS
WASHINGTON NAT MOCLDY    66  61  84 CALM      29.94F
DULLES         PTCLDY    56  55  97 SE3       29.93F
ANDREWS AFB    CLEAR     57  57 100 NW3       29.92F FOG
QUANTICO       PTCLDY    62  59  90 NW7       29.95F
COLLEGE PARK*  PTCLDY    59  59 100 CALM      29.93F
LEESBURG*      CLEAR     57  57 100 CALM      29.94F
MANASSAS*      CLOUDY    55  55 100 S3        29.94F VSB 1/4
GAITHERSBURG*  CLEAR     57  55  94 SE3       29.97F

$$

MDZ006>007-011-014-210900-
BALTIMORE METRO

CITY           SKY/WX    TMP DP  RH WIND       PRES   REMARKS
BWI AIRPORT    PTCLDY    57  56  96 CALM      29.93F
MD SCIENCE CTR   N/A     66  63  90 MISG      29.94F
MARTIN STATE   CLEAR     61  61 100 CALM      29.94F FOG
ANNAPOLIS      PTCLDY    65  63  93 NW3       29.93F
FORT MEADE*    CLEAR     54  54 100 CALM      29.95F

$$

MDZ012-015-019>023-210900-
MARYLAND EASTERN SHORE

CITY           SKY/WX    TMP DP  RH WIND       PRES   REMARKS
OCEAN CITY     PTCLDY   N/A N/A N/A CALM      29.91F FOG
SALISBURY      FOG       70  67  90 N3        29.92F VSB 1
BAY BRIDGE AP*   N/A     63  61  94 CALM      29.93F
CAMBRIDGE*     CLOUDY    70  64  83 CALM      29.92F
EASTON*        MOCLDY    66  66 100 CALM      29.97F

$$

MDZ017>025-210900-
SOUTHERN MARYLAND

CITY           SKY/WX    TMP DP  RH WIND       PRES   REMARKS
PATUXENT RIVER MOCLDY    68  64  87 NW8       29.92F
ST INIGOES     PTCLDY    67  62  84 CALM      29.93F
LEONARDTOWN*   PTCLDY    63  61  94 CALM      29.94F

$$

MDZ003>005-210900-
NORTH CENTRAL MARYLAND

CITY           SKY/WX    TMP DP  RH WIND       PRES   REMARKS
FREDERICK*     CLEAR     57  55  94 NW3       29.96F
HAGERSTOWN APT CLEAR     63  58  83 SE8       29.92F
WESTMINSTER*   CLEAR     59  55  88 CALM      29.94F

$$

MDZ501>502-210900-
WESTERN MARYLAND

CITY           SKY/WX    TMP DP  RH WIND       PRES   REMARKS
OAKLAND*       CLEAR     59 N/A N/A SW10      29.98F
CUMBERLAND*    CLEAR     57  54  88 CALM      29.96F

$$

VAZ025>031-210900-
SHENANDOAH VALLEY

CITY           SKY/WX    TMP DP  RH WIND       PRES   REMARKS
WINCHESTER*    CLEAR     59  55  88 CALM      29.92F
STAUNTON*      PTCLDY    50  48  91 CALM      29.98F FOG

$$

WVZ021-048>050-054>055-210900-
EASTERN WEST VIRGINIA PANHANDLE

CITY           SKY/WX    TMP DP  RH WIND       PRES   REMARKS
MARTINSBURG    CLEAR     57  53  86 CALM      29.92F
PETERSBURG*    CLEAR     55  53  94 CALM      29.96S FOG

$$

VAZ036>039-050-210900-
CENTRAL FOOTHILLS

CITY           SKY/WX    TMP DP  RH WIND       PRES   REMARKS
CHARLOTTESVILL CLEAR     59  57  93 W6        29.93F
ORANGE*          N/A     54  54 100 CALM      29.95F FOG

$$

VAZ055>057-210900-
NORTH AND CENTRAL PIEDMONT

CITY           SKY/WX    TMP DP  RH WIND       PRES   REMARKS
FREDERICKSBRG* PTCLDY    60  60 100 CALM      29.94S
STAFFORD*      PTCLDY    55  55 100 CALM      29.98S FOG

$$

NCZ024-NYZ072-PAZ021-071-VAZ022-071-210900-
OTHER REGIONAL OBSERVATIONS

CITY           SKY/WX    TMP DP  RH WIND       PRES   REMARKS
NEW YORK CITY  CLOUDY    67  64  90 CALM      29.98F FOG
PHILADELPHIA   MOCLDY    67  63  87 NW8       29.94F
PITTSBURGH     CLOUDY    68  62  81 S9        29.85F
ROANOKE        CLEAR     58  55  90 CALM      30.00F
RICHMOND       MOCLDY    65  62  90 N5        29.92F
RALEIGH        MOCLDY    65  61  87 VRB5      29.92F

$$

ANZ530>537-210900-
MARINE OBSERVATIONS

STATION/POSITION TIME  TEMP    WIND        PRES
                       AIR SEA DIR/SP/G
                 (UTC) (F)     (DEG/KT/KT) (MB)
THOMAS PT LIGHT  0800   69 74   40/  3/  3 1014.5F
BALT KEY BRIDGE  0800   68      60/  3/  4 1013.5F
COVE POINT       0800   70      20/  7/  8 1013.5F
LEWISETTA        0800   70 74   30/  4/  6 1013.1F
SOLOMONS ISLAND  0800      76                N/A
PINEY POINT      0800           30/  8/ 10   N/A

$$



USA.gov is the U.S. government's official web portal to all federal, state and local government web resources and services.